{"data":{"norad_id":48094,"epoch":"2026-09-19T17:15:34.249824Z","epoch_age_seconds":96614,"freshness":"FRESH","line1":"1 48094U 21027C   26262.71914641  .00002058  00000+0  78013-4 0  9995","line2":"2 48094  53.1611 342.7665 0001078  72.0689 288.0430 15.31714255302245","mean_motion":15.31714255,"eccentricity":0.0001078,"inclination_deg":53.1611,"raan_deg":342.7665,"arg_perigee_deg":72.0689,"mean_anomaly_deg":288.043,"bstar":7.8013e-5,"rev_number":30224,"period_min":94.012313021139,"perigee_km":469.95919778264,"apogee_km":471.43580650131,"semimajor_km":6848.834502142,"source":"CELESTRAK","updated_at":"2026-09-20T09:00:38.761032Z"}}